Location: Casone le Fosse
(44.6547°N, 12.1103°E)
Time: 04:34:09
(UTC+00:00)

Meteor 2-1 Rocket - Pass Details

Date: 29 October 2020
Orbit: 830 x 906 km, 81.3° (Epoch: 01 December)

Event Time Altitude Azimuth Distance (km) Brightness Sun altitude
Rises 17:19:09 0° 174° (S) 3,364 7.3 -13.8°
Reaches altitude 10° 17:21:35 10° 170° (S) 2,431 6.6 -14.3°
Maximum altitude 17:26:55 54° 95° (E) 1,008 4.2 -15.2°
Drops below altitude 10° 17:32:18 10° 19° (NNE) 2,455 6.4 -16.2°
Sets 17:34:45 0° 15° (NNE) 3,399 7.2 -16.6°
